Theta_e
319 319 318 318 318 318 318 318 317 316 316 316 316 317 317 317 317 316 316 316 316 316 316 315 315 315 314 314 313 314 315 316 318 318 318 318 317 316 320 323 323 321 319 319 321 322 319 318 319 321 322 323 324 323 321 320 319 319 319 319 319 320 321 321 320 320 320 321 320 320 320 320 320 320 319 319 318 317 316 316 316 315 315 314 314
319 319 319 319 319 319 319 318 317 316 316 316 317 317 317 317 317 316 316 316 316 316 315 314 313 313 312 311 311 312 313 313 314 315 315 315 315 315 317 318 319 321 320 317 317 319 319 319 320 319 319 320 320 319 319 318 317 317 318 319 319 319 320 319 319 320 320 320 320 319 319 319 319 318 318 318 318 317 317 317 316 315 314 314 313
320 320 320 320 320 319 318 318 317 317 317 317 317 317 317 317 317 317 316 316 315 315 314 313 312 311 310 310 310 310 310 310 311 312 312 312 312 313 312 312 314 319 322 317 316 319 320 320 319 318 319 320 320 320 320 319 318 317 317 319 319 319 319 318 319 319 319 319 319 318 318 318 318 318 318 317 317 317 316 315 314 313 313 312 311
317 318 318 317 317 317 317 317 317 317 317 317 317 317 317 317 317 317 316 316 315 314 312 311 310 310 309 310 310 310 310 310 310 310 311 310 310 310 310 309 311 315 316 314 315 318 318 317 318 320 322 323 322 322 321 319 317 316 317 318 318 318 318 318 318 318 318 318 317 317 317 317 318 318 317 316 315 314 313 312 312 311 310 310 310
315 315 315 314 314 314 315 315 315 316 316 317 317 317 317 317 316 316 316 315 314 312 310 310 310 310 310 310 310 310 310 310 309 309 310 309 310 310 308 309 313 316 314 311 314 316 316 316 318 320 322 322 322 322 320 319 316 314 316 317 317 317 317 317 317 318 318 318 317 317 317 317 317 317 316 315 313 312 312 310 309 308 307 307 307
314 313 313 313 313 313 314 313 313 314 314 315 315 316 316 316 315 315 314 312 311 310 310 310 310 310 310 310 310 310 310 310 310 310 310 310 311 310 308 308 314 317 316 313 314 316 317 318 318 318 320 320 321 320 319 316 314 313 315 316 317 317 318 318 318 318 319 318 317 317 317 317 317 316 314 313 312 312 310 309 307 306 305 305 305
313 312 312 312 312 313 313 313 313 313 313 313 313 313 313 313 313 312 311 311 310 310 310 310 310 310 310 310 309 310 310 310 310 310 309 310 310 310 310 312 313 313 314 314 316 318 319 318 318 318 318 317 317 317 315 314 313 312 313 315 315 317 318 318 318 319 318 317 317 317 316 316 316 314 313 312 311 311 309 308 307 305 304 304 304
313 312 312 311 311 311 312 312 312 311 311 311 311 311 312 312 311 311 310 310 310 310 310 310 310 310 309 310 310 309 310 309 310 310 309 310 309 309 313 316 315 313 312 312 314 316 316 315 315 315 314 313 313 314 314 313 312 313 314 315 315 316 317 317 317 317 317 316 316 316 316 316 315 314 313 312 311 310 309 309 306 303 303 304 304
311 311 311 311 311 311 311 311 311 311 311 311 310 310 310 311 311 311 310 310 310 310 310 310 310 310 310 310 310 310 310 309 309 310 309 310 310 310 311 313 313 312 311 310 310 310 311 311 311 310 310 310 311 313 313 312 312 314 314 315 315 316 316 316 316 316 315 315 316 315 316 316 315 314 312 311 311 310 309 307 302 300 300 300 301
312 311 311 311 311 311 310 310 310 310 310 311 310 310 310 310 311 311 310 311 310 310 310 309 309 310 309 310 310 310 310 310 309 310 309 309 309 310 310 310 310 310 309 309 309 309 310 309 308 307 307 309 311 312 312 312 313 314 313 313 314 315 315 315 315 315 315 315 315 315 315 315 314 313 312 311 310 309 308 303 298 295 295 294 295
314 312 311 311 311 311 311 310 311 311 310 311 310 310 310 310 310 311 310 310 310 310 310 310 310 309 310 310 310 310 310 310 310 309 310 310 309 309 310 310 310 309 309 309 309 310 310 308 307 307 306 307 309 311 311 311 312 313 313 313 314 314 314 314 314 315 315 315 315 314 313 313 313 312 311 310 309 307 303 297 294 292 292 291 292
316 313 311 311 311 311 311 310 311 311 311 311 310 310 310 310 310 311 310 310 310 309 309 309 309 310 310 310 310 310 310 310 310 310 310 309 309 309 309 309 310 310 310 310 309 309 308 307 307 307 307 307 308 309 310 311 311 312 313 313 313 312 312 313 314 314 315 315 314 313 312 312 312 311 309 308 306 303 298 294 292 291 291 291 291
316 314 312 311 310 310 311 311 310 311 310 310 310 310 310 310 310 310 309 310 309 310 310 310 309 310 310 310 310 310 310 310 310 310 310 310 309 309 309 310 310 310 310 310 309 309 308 307 307 308 308 308 309 310 311 312 312 312 312 312 312 312 312 312 313 314 314 314 312 312 311 311 310 308 307 306 304 300 296 293 291 291 291 290 290
316 314 312 311 311 310 311 310 310 310 310 310 310 310 310 310 310 310 310 310 309 310 310 310 310 310 310 310 310 310 310 311 310 310 310 310 309 309 309 310 310 310 310 309 309 309 308 308 308 308 308 309 310 311 312 312 312 311 311 311 312 312 312 312 312 312 312 311 311 310 310 308 307 307 306 305 302 298 294 292 291 291 290 290 289
316 314 312 311 311 310 310 311 310 310 310 310 310 310 310 310 310 310 310 310 310 310 310 310 310 310 310 310 310 311 311 310 310 310 310 309 309 309 309 310 310 310 309 309 309 309 309 309 309 309 310 310 310 311 312 311 311 310 309 310 311 311 311 311 311 310 309 308 308 307 306 306 305 305 305 303 300 296 294 293 291 290 290 289 289
317 316 314 312 310 310 310 310 310 310 310 310 310 311 311 310 310 310 310 310 310 310 310 310 310 310 310 310 310 310 311 310 310 310 309 309 309 309 309 310 309 309 309 309 309 309 309 309 309 309 309 310 310 311 311 311 310 309 309 309 309 309 309 309 308 308 307 307 306 305 305 305 305 304 303 301 299 297 295 293 291 290 290 289 289
317 317 316 313 311 310 310 310 310 310 310 310 311 311 311 311 311 311 310 311 310 310 310 310 310 310 310 310 311 310 310 310 310 309 309 309 309 309 309 309 309 309 308 308 308 308 308 308 308 308 308 308 308 309 309 308 308 308 308 307 307 308 308 307 306 306 306 305 305 305 305 304 304 304 302 301 300 298 295 293 291 290 289 289 289
317 317 317 315 312 310 310 310 310 310 311 311 311 311 311 311 311 311 311 311 311 311 310 310 310 310 309 310 310 310 310 310 310 309 309 309 309 309 309 309 309 309 309 308 308 307 307 307 307 307 307 307 307 307 307 306 306 307 307 307 307 307 306 305 305 304 304 304 304 304 304 303 303 302 302 301 300 297 295 292 291 290 289 288 288
317 316 316 316 314 311 310 309 310 310 310 311 311 311 311 311 311 311 311 312 311 310 310 310 310 309 309 309 310 310 310 309 309 309 309 309 309 309 309 309 309 309 308 308 308 307 307 307 307 307 307 306 306 306 306 306 306 306 306 306 306 305 304 304 303 303 303 303 303 303 302 302 301 300 299 298 297 295 293 291 290 289 288 288 287
316 316 316 316 315 313 310 309 309 310 310 310 311 311 311 311 311 311 311 311 311 311 310 310 310 309 309 309 309 310 310 309 309 309 309 309 309 309 309 309 309 308 308 308 307 307 307 306 306 306 306 305 305 305 305 305 305 305 305 304 303 303 303 303 302 302 302 302 301 301 300 299 298 297 296 295 293 292 291 290 289 289 288 288 288
315 316 316 316 316 315 313 310 309 309 310 310 310 310 310 310 311 311 311 311 311 310 310 310 310 310 309 309 309 309 309 309 309 309 309 309 309 309 309 309 308 308 307 307 307 306 306 306 306 305 305 305 304 304 304 304 303 303 303 302 302 302 302 302 301 301 300 300 299 298 298 297 296 296 295 294 293 292 291 291 291 290 289 289 289
315 315 315 315 315 315 315 313 311 309 309 309 309 309 309 310 310 310 310 310 310 310 310 310 310 309 309 309 309 309 309 309 309 309 309 308 309 309 308 308 308 307 307 307 306 306 306 305 305 305 304 304 304 304 303 303 303 302 302 302 302 302 301 301 300 299 298 298 297 297 296 296 295 294 294 293 293 292 292 291 291 291 290 290 289
314 314 314 315 315 315 315 315 313 311 310 309 309 309 309 309 310 310 310 310 310 310 310 310 310 309 309 309 309 308 309 309 309 309 309 308 308 309 308 308 307 307 307 306 306 306 305 305 305 304 304 304 303 303 303 302 302 302 302 301 301 300 300 298 297 297 296 295 295 294 293 293 292 292 291 291 290 290 290 289 289 289 289 289 289
313 314 314 314 315 315 315 315 315 314 312 310 309 309 309 309 309 310 309 310 310 310 310 310 310 310 309 309 309 309 309 309 309 309 309 308 308 308 308 307 307 307 306 306 306 305 305 305 304 304 304 303 303 302 302 302 302 301 301 300 299 298 297 296 295 294 293 292 292 291 290 290 290 289 289 288 288 288 288 287 287 287 287 287 287
313 313 313 314 314 314 314 314 315 315 314 313 311 310 309 309 309 309 309 309 309 309 309 310 310 310 310 309 309 308 308 308 309 308 308 308 308 308 308 307 307 306 306 306 305 305 305 304 304 304 303 303 302 302 301 301 301 300 300 299 297 296 295 294 293 292 291 290 290 289 289 288 288 287 287 287 287 286 286 286 286 286 286 286 286
313 313 313 313 313 314 314 314 313 313 313 313 312 311 310 309 309 309 309 309 309 309 309 309 309 309 310 310 309 308 308 308 308 308 308 308 308 308 307 307 306 306 306 306 305 305 304 304 304 303 303 302 302 301 301 300 300 299 298 296 295 294 293 292 291 291 290 289 288 288 287 287 287 287 286 286 286 286 286 285 285 285 285 285 285
312 312 312 313 313 313 313 313 312 312 312 311 311 310 309 309 308 308 308 309 309 309 308 308 309 309 310 310 309 309 308 308 308 308 308 308 308 307 307 306 306 306 306 305 305 304 304 303 303 302 302 301 301 300 300 299 298 297 296 294 293 292 292 291 290 289 289 288 287 287 287 287 286 286 286 286 285 285 285 285 285 285 284 284 284
310 310 311 311 312 313 313 313 313 312 312 312 311 310 309 308 308 307 307 308 308 308 308 308 308 309 309 309 309 309 308 308 308 308 308 307 307 307 307 306 306 306 305 305 304 303 303 303 302 302 301 301 300 299 298 297 296 295 294 292 292 291 291 290 289 288 288 287 287 287 287 286 286 286 285 285 285 285 285 284 284 284 283 283 283
311 311 310 310 310 311 312 312 312 313 313 313 313 312 311 310 309 308 308 307 307 307 307 308 308 309 308 308 308 308 308 308 307 307 307 306 306 306 306 305 305 305 304 304 304 303 303 302 302 301 301 300 299 297 296 295 294 293 292 291 290 290 289 288 288 287 287 287 287 286 286 286 285 285 285 285 284 284 284 284 284 283 283 283 283
312 312 311 310 310 309 310 310 311 311 312 312 312 312 312 311 311 310 309 309 308 308 308 308 308 308 308 308 307 307 306 306 306 306 305 305 304 303 303 304 304 303 303 303 303 302 302 301 301 300 299 298 297 296 294 293 292 291 290 290 289 289 288 287 287 287 287 287 286 286 286 285 285 285 284 284 284 284 284 284 283 283 283 282 282
311 311 311 311 310 309 309 309 309 309 310 310 310 310 310 310 310 310 309 309 309 308 308 307 307 307 307 306 306 305 304 304 304 304 304 303 302 301 301 302 301 301 302 302 302 301 301 300 300 299 298 296 295 293 292 291 290 290 289 289 288 288 287 287 287 287 286 286 286 286 285 285 285 285 284 284 284 284 284 283 283 283 282 282 281
310 310 309 309 309 309 309 308 308 308 308 308 308 309 309 309 309 308 308 308 308 307 307 306 306 305 305 304 304 303 303 302 302 302 302 301 301 301 301 300 300 301 301 300 300 300 300 300 299 298 296 294 293 291 290 290 289 288 288 287 287 287 287 287 286 286 286 286 286 285 285 285 285 285 284 284 284 284 283 283 282 282 282 281 281
309 309 309 309 308 308 308 307 307 307 307 307 307 307 307 307 307 307 306 306 306 306 305 305 304 304 303 302 301 301 300 300 300 300 300 300 300 299 299 300 300 300 299 299 298 299 299 298 297 295 293 292 290 289 289 288 288 287 287 287 287 287 287 286 286 286 286 286 285 285 285 285 285 285 284 284 284 283 283 283 282 282 281 281 280
308 308 308 308 308 308 308 307 307 306 306 306 306 306 305 305 305 305 305 305 305 304 304 303 303 302 301 300 299 298 298 298 298 298 298 298 298 298 298 299 299 298 297 297 298 297 297 296 294 292 291 289 289 288 287 287 287 287 286 286 286 286 286 286 286 285 285 285 285 285 285 285 285 285 284 284 283 283 282 282 282 281 281 280 279
308 308 307 307 307 307 307 307 306 306 306 305 305 305 305 304 304 304 304 304 303 303 302 302 301 301 299 298 297 296 296 296 296 296 296 297 297 297 297 297 297 296 296 296 296 295 295 294 292 290 289 288 287 287 286 286 286 286 286 286 286 286 286 286 286 286 285 285 285 285 285 285 285 284 284 283 283 282 282 282 282 282 281 280 279
308 308 307 307 306 306 306 306 306 305 305 305 304 304 304 304 304 304 303 303 303 302 301 301 300 299 298 297 296 296 296 295 295 295 296 296 296 296 296 296 297 297 296 295 294 294 293 291 289 288 287 287 286 286 286 286 286 286 286 286 286 286 286 286 286 286 286 285 285 285 285 285 284 284 283 283 282 282 282 282 282 281 280 280 279
307 307 307 307 307 306 306 306 305 305 304 304 304 303 303 303 303 303 303 302 302 301 300 299 298 297 297 296 296 295 295 294 294 294 295 294 294 294 294 295 296 296 295 294 293 292 290 289 287 286 286 286 285 285 285 285 285 286 286 286 286 286 286 286 286 286 285 285 285 285 284 284 283 283 283 282 282 282 282 281 281 281 280 279 279
307 307 307 307 307 307 306 306 305 305 304 304 303 303 302 302 302 302 301 301 300 298 297 296 296 295 295 295 295 295 294 293 293 293 293 292 292 292 292 292 293 294 293 293 292 290 288 287 286 285 285 285 285 285 285 285 286 286 287 287 287 287 286 286 286 285 285 285 284 284 283 283 283 283 282 282 282 282 281 281 280 280 280 279 278
306 306 307 307 307 307 307 306 305 304 304 303 303 302 302 301 301 301 300 298 297 296 295 295 294 294 294 294 294 294 294 293 293 293 292 291 291 291 291 291 291 292 292 291 289 287 286 286 285 285 285 285 285 285 286 286 287 287 287 287 287 287 286 286 285 285 284 284 283 283 283 282 282 282 282 282 281 281 281 280 280 280 279 279 278
307 307 307 307 306 306 306 305 305 304 303 303 302 302 301 301 300 299 297 296 295 294 294 294 294 294 293 293 293 293 294 293 293 293 292 291 291 291 290 290 291 290 290 288 287 286 285 285 284 284 285 285 286 287 287 288 288 288 287 287 286 286 286 285 285 284 283 283 283 282 282 282 282 281 281 281 281 280 280 280 279 279 279 278 278
306 307 307 307 307 306 306 305 304 303 303 302 302 301 300 299 298 296 295 294 294 293 293 293 293 293 292 292 292 292 293 293 292 292 292 291 291 291 291 290 289 288 287 286 285 284 284 284 285 285 286 287 287 288 288 288 288 287 287 286 286 285 285 284 284 283 283 282 282 282 282 281 281 281 280 280 280 280 280 279 279 279 278 278 278
305 306 307 307 307 307 306 305 304 303 302 302 302 301 300 298 295 294 293 293 293 293 292 292 292 291 291 291 291 291 291 290 290 290 290 290 290 290 289 288 287 285 284 284 284 284 285 285 286 287 287 288 288 288 288 288 287 287 286 286 285 285 284 283 283 282 282 282 281 281 281 281 281 280 280 280 280 279 279 279 278 278 278 278 278
304 305 306 306 306 306 305 305 304 303 302 302 301 300 298 296 294 293 292 292 292 291 291 291 291 291 290 290 290 289 289 288 288 288 289 289 289 288 287 285 284 283 283 284 285 286 286 287 287 288 288 288 288 288 287 287 286 286 285 285 284 283 283 282 282 282 281 281 281 281 280 280 280 280 279 279 279 279 278 278 278 278 278 278 277
303 303 304 304 304 304 304 303 303 302 301 300 299 298 296 295 294 293 292 291 291 291 290 290 290 290 290 289 289 288 288 287 287 287 287 287 286 285 284 283 283 284 285 286 286 287 287 288 288 288 288 288 287 287 287 286 285 285 284 284 283 282 282 281 281 281 281 280 280 280 280 279 279 279 279 279 278 278 278 278 277 277 277 277 277
300 300 301 301 301 301 301 301 300 299 298 297 296 296 295 295 294 293 292 291 291 290 290 290 290 289 289 289 288 288 287 287 286 285 285 284 283 283 283 284 285 286 287 287 287 288 288 288 288 288 287 287 287 286 286 285 284 284 283 282 282 281 281 281 281 280 280 280 280 279 279 279 278 278 278 278 278 277 277 277 277 277 277 277 277
297 297 298 298 298 298 298 297 296 295 295 295 295 295 295 294 294 293 292 291 290 290 290 289 289 288 288 288 288 287 286 285 284 283 283 283 283 284 285 286 287 287 287 288 288 288 288 288 288 287 287 286 286 285 285 284 283 283 282 281 281 281 281 280 280 280 280 279 279 279 278 278 278 278 277 277 277 277 276 276 276 276 276 276 276
295 295 295 294 294 294 293 293 293 293 293 294 294 294 294 293 293 292 291 290 289 289 289 288 288 288 287 287 287 286 284 283 282 283 284 285 286 286 287 287 287 288 288 288 288 288 288 287 287 286 286 285 285 284 284 283 282 282 281 281 281 280 280 280 280 279 279 279 278 278 278 277 277 277 277 276 276 276 276 276 276 276 276 276 276
293 293 292 291 291 291 291 292 292 292 292 293 293 293 292 292 291 290 289 288 288 287 287 287 287 287 286 285 284 283 282 283 284 285 286 287 287 287 288 288 288 288 288 288 288 287 287 286 286 285 285 284 284 283 282 282 281 281 281 280 280 280 280 279 279 279 278 278 278 277 277 277 276 276 276 276 276 276 275 275 275 275 275 275 275
291 290 290 290 290 290 290 290 290 290 290 290 290 291 290 290 289 289 288 287 286 286 286 286 285 284 284 283 283 283 284 285 286 287 287 287 288 288 288 288 288 288 288 287 287 286 285 285 285 284 283 283 282 282 281 281 281 280 280 280 280 279 279 279 278 278 277 277 277 276 276 276 276 275 275 275 275 275 275 275 275 275 275 275 274
289 289 289 289 288 288 288 288 288 288 288 288 288 288 288 288 287 287 286 286 285 285 284 284 283 283 283 284 284 285 286 287 287 287 288 288 288 288 288 288 287 287 287 286 285 285 284 284 283 283 282 282 281 281 280 280 280 280 279 279 279 278 278 278 277 277 276 276 276 276 275 275 275 275 275 274 274 274 274 274 274 274 274 274 274
288 288 287 287 287 286 286 286 286 286 286 286 286 286 286 286 286 285 285 284 283 283 283 283 283 284 285 286 286 287 287 287 288 288 288 288 288 287 287 287 286 286 285 285 284 284 283 283 282 282 281 281 280 280 280 279 279 279 279 278 278 277 277 276 276 276 275 275 275 275 275 274 274 274 274 274 274 274 274 274 274 274 274 274 273
Wind_Speed
32 32 32 33 33 33 33 33 33 34 33 33 33 31 29 28 26 26 27 27 27 27 27 28 28 29 27 27 27 27 27 26 26 26 25 26 26 24 23 25 27 26 26 28 26 23 23 24 25 25 24 24 24 23 23 24 25 28 29 27 24 23 22 23 27 28 24 22 22 22 23 24 26 26 25 24 24 23 23 24 24 26 25 24 24
30 31 31 32 33 33 34 34 34 34 34 34 33 32 31 29 29 29 29 29 28 28 28 29 29 28 27 27 27 27 27 26 25 25 25 26 25 25 25 27 27 25 26 27 25 24 25 26 25 24 23 24 25 26 26 27 29 29 26 25 25 25 24 25 25 25 24 21 20 21 21 22 23 23 24 25 24 24 25 26 27 28 27 26 26
27 28 29 31 32 33 33 33 33 33 34 34 34 34 33 31 31 32 31 30 29 29 30 29 28 27 27 27 28 27 25 24 23 24 24 24 24 25 25 25 26 27 29 28 25 24 25 25 24 23 23 26 27 28 28 27 28 27 24 24 25 25 25 25 25 24 24 23 23 23 23 23 24 23 23 24 24 24 26 26 27 29 28 27 27
22 24 26 28 29 30 31 31 31 32 33 35 35 35 34 34 33 33 32 31 30 30 30 28 27 27 28 28 27 25 23 22 22 22 23 23 23 24 24 24 24 26 28 27 25 24 24 24 24 24 25 27 28 28 27 27 27 27 25 24 24 24 24 25 26 25 25 26 26 26 26 25 24 22 21 22 22 23 25 26 28 29 29 27 27
20 22 23 25 26 26 27 27 28 29 31 32 33 33 34 33 33 32 31 31 30 29 28 28 28 28 28 27 25 23 22 21 21 21 21 22 21 22 23 22 22 23 23 23 23 24 25 25 25 25 26 28 28 27 27 28 28 27 25 24 24 24 25 25 26 25 26 27 28 27 25 24 22 20 20 21 22 24 26 28 29 29 29 28 27
20 22 23 24 25 25 25 26 26 27 27 28 28 29 30 30 31 30 30 30 29 28 28 27 28 28 27 25 23 21 21 21 21 21 21 21 21 22 22 22 22 23 23 23 23 25 26 26 27 27 28 30 30 29 29 28 28 26 25 24 24 24 24 24 25 26 27 29 29 27 24 22 21 20 20 21 23 25 28 29 29 30 30 28 27
20 21 23 24 25 26 26 27 27 26 26 26 27 28 28 28 28 28 28 28 28 27 27 27 27 26 25 23 22 21 21 21 21 21 21 21 22 23 21 20 21 23 24 24 25 26 27 28 29 30 31 32 31 30 28 26 26 26 25 24 25 25 25 25 26 27 27 27 26 25 23 22 21 20 20 22 25 27 28 30 33 31 29 27 24
20 21 22 23 24 26 27 28 28 28 27 28 28 29 29 28 27 27 28 28 27 27 27 26 26 25 24 22 22 21 21 22 21 21 21 21 22 21 21 21 24 25 26 27 28 29 30 31 32 32 32 31 30 27 25 26 26 24 21 21 22 23 24 25 25 24 23 22 21 22 22 21 21 21 22 24 27 28 29 32 34 30 25 23 20
21 22 22 22 23 24 26 27 27 27 28 28 29 29 29 29 29 29 29 28 27 27 26 26 25 24 23 22 22 22 22 22 21 22 22 22 21 22 23 25 27 28 28 28 29 29 29 29 30 29 29 28 26 25 25 25 24 21 20 20 21 21 22 22 21 20 19 19 19 21 22 22 22 23 25 26 27 28 30 31 29 25 22 20 17
22 22 22 23 23 24 25 26 26 27 28 28 29 29 29 29 29 29 28 27 27 26 25 25 25 24 23 23 22 23 22 22 22 22 22 22 23 24 25 26 27 28 27 26 26 25 25 25 25 24 23 22 22 22 23 23 22 21 21 21 21 21 21 20 18 17 18 19 20 21 23 23 23 24 26 27 27 28 29 27 24 21 19 20 17
22 21 21 22 24 24 25 26 27 27 28 28 27 26 26 27 28 28 27 26 26 26 25 25 25 25 24 23 23 23 23 23 23 23 24 24 25 25 25 26 26 25 24 23 23 24 24 24 23 22 21 20 20 21 22 22 22 22 22 23 23 23 21 19 18 18 19 20 20 22 24 24 24 24 26 26 26 26 25 23 21 20 19 21 20
24 23 21 21 23 24 25 26 26 26 26 25 24 22 23 24 25 25 25 25 26 26 26 26 25 25 25 24 24 24 24 24 24 25 25 25 26 26 26 26 25 24 23 23 23 24 23 22 22 22 22 21 20 21 20 20 21 21 22 22 22 22 20 19 18 18 20 20 21 23 24 25 24 24 25 25 25 24 22 21 20 20 20 21 21
26 24 22 21 22 23 25 25 25 25 24 22 21 21 22 23 23 24 24 25 26 26 26 26 27 27 27 26 25 25 25 25 25 25 26 26 26 26 26 26 25 24 24 24 24 23 22 22 22 22 21 19 19 19 19 19 18 17 17 16 16 17 17 17 17 19 20 21 22 23 23 24 24 24 25 25 24 23 22 21 21 21 22 22 22
25 25 23 21 21 22 24 25 25 24 22 21 21 21 22 22 23 24 25 25 26 27 27 28 28 28 28 27 26 26 26 26 26 26 26 26 26 26 26 25 25 25 25 25 24 23 22 22 21 19 18 18 18 19 19 17 16 16 15 15 15 15 16 17 19 20 21 22 22 22 23 24 24 24 25 25 23 23 22 22 22 22 23 23 23
24 24 23 21 21 22 24 25 25 24 22 22 22 23 23 24 24 25 25 26 26 27 28 29 29 29 29 28 28 27 27 26 26 26 26 26 26 26 26 25 25 25 25 24 24 23 22 21 20 19 19 19 19 19 18 17 16 16 16 16 16 17 18 20 21 21 22 22 22 22 23 24 24 23 23 23 22 22 22 22 22 23 23 24 24
23 23 24 23 22 22 24 26 27 25 25 25 25 25 25 25 24 25 25 26 27 28 29 30 31 30 30 29 29 28 27 27 27 26 26 27 27 27 26 26 26 26 25 25 25 24 22 21 20 20 20 19 18 17 17 17 17 17 17 17 18 19 20 20 20 21 21 21 21 21 21 21 21 20 20 21 21 22 23 23 23 23 24 25 25
23 22 23 24 24 23 26 28 29 28 27 27 27 26 26 25 25 25 25 26 27 28 29 30 31 31 31 31 30 29 28 28 27 26 27 27 27 27 27 27 27 26 26 26 25 23 21 20 20 20 19 17 16 15 16 16 15 15 15 16 17 18 19 19 19 19 18 18 18 18 18 18 18 19 19 20 21 22 23 23 23 23 24 25 26
22 23 23 23 25 26 27 30 31 31 30 30 29 28 27 26 26 25 25 26 27 28 29 31 31 32 32 32 31 31 30 28 27 27 27 28 28 28 27 28 28 27 27 26 24 22 21 20 19 18 16 15 14 14 15 14 14 14 15 16 17 17 17 16 16 15 15 15 15 16 16 17 17 18 19 20 21 22 22 23 23 23 23 24 25
22 22 21 23 25 27 29 32 34 34 33 32 31 30 29 28 28 27 27 27 28 29 30 31 31 32 33 33 33 33 31 29 28 28 28 29 29 29 28 29 29 29 28 26 24 22 21 20 19 17 15 15 15 14 14 14 14 14 15 15 14 14 13 13 12 13 13 14 15 16 16 17 17 18 19 20 20 21 21 22 23 23 23 23 24
22 21 21 23 25 27 29 34 37 37 36 35 34 34 33 32 31 30 29 29 30 30 31 31 32 32 33 34 35 34 33 31 29 29 30 30 30 30 30 30 30 29 28 26 24 23 21 20 19 17 16 17 16 16 15 14 13 13 12 11 11 10 11 11 12 12 13 14 15 16 16 17 17 18 18 19 20 20 20 21 22 22 24 24 24
21 21 22 24 26 26 27 31 37 40 39 39 39 38 37 35 34 33 32 32 32 31 32 32 32 33 34 35 35 36 34 33 31 30 31 31 31 31 31 31 30 29 28 26 25 24 22 21 19 19 19 19 18 16 15 13 12 11 9 8 8 9 10 11 12 12 12 13 14 15 16 16 16 17 17 18 18 19 19 20 21 21 23 24 24
21 21 22 24 25 26 26 27 33 39 42 43 43 42 40 39 37 37 36 35 34 33 33 33 33 34 34 35 36 36 36 34 33 32 33 33 32 32 32 32 30 29 28 26 25 24 23 21 20 20 21 20 18 16 14 12 10 9 8 8 9 10 11 11 11 11 11 12 13 14 14 14 14 14 15 15 16 17 17 18 19 20 21 21 22
23 23 23 23 24 25 26 27 29 35 40 44 45 45 44 42 41 41 39 38 36 35 34 33 34 35 36 36 37 37 37 36 36 34 34 33 33 33 33 32 31 30 28 27 25 24 23 22 22 22 22 20 17 15 13 11 9 8 8 9 9 10 10 10 10 10 10 10 11 12 12 12 12 12 13 14 15 15 16 17 18 19 19 20 20
24 24 23 23 24 25 27 29 30 32 36 40 44 46 46 45 44 44 43 41 40 38 36 35 36 37 37 38 38 38 39 39 38 36 35 34 34 34 34 33 32 31 29 27 26 25 24 23 23 23 21 19 17 15 13 11 10 9 9 9 10 10 10 9 8 8 8 8 9 10 11 12 12 13 13 14 15 16 16 17 18 19 20 20 20
25 25 24 24 25 26 28 30 31 32 34 37 41 44 46 46 46 46 46 44 43 41 39 38 38 38 38 39 39 39 40 40 40 38 36 35 35 36 36 35 33 32 30 29 27 26 25 25 25 23 21 19 17 15 13 11 10 9 9 9 9 9 8 8 7 7 7 8 9 10 11 12 14 14 15 16 17 18 18 19 19 20 21 20 20
24 24 25 25 25 26 28 29 30 32 33 36 39 41 44 46 46 46 46 45 45 43 41 40 39 39 39 40 40 41 41 42 41 39 37 37 37 37 37 36 35 33 32 29 28 27 27 27 25 23 21 19 17 15 13 12 10 9 9 9 9 8 8 7 7 7 7 8 9 10 12 13 15 16 17 18 19 20 21 21 21 21 22 22 21
17 20 22 24 26 27 28 28 29 30 31 32 35 37 40 42 44 45 46 46 46 45 44 43 42 41 41 41 41 42 42 43 43 41 40 39 39 39 39 39 36 35 33 31 30 29 29 27 25 23 22 20 18 16 14 12 11 10 10 9 8 8 7 7 7 7 7 8 10 11 13 15 17 18 19 19 20 21 22 23 23 23 23 23 22
14 15 17 20 23 26 27 29 29 29 29 29 30 31 33 35 38 41 43 43 44 44 44 43 42 41 41 41 42 43 44 44 44 44 42 41 40 41 42 41 38 35 34 32 31 30 29 28 26 24 22 20 18 16 14 13 12 11 10 9 8 7 7 7 7 7 8 9 11 13 15 17 18 20 20 20 21 22 22 23 23 24 24 24 23
15 15 15 16 19 21 24 26 28 29 30 30 30 30 29 30 31 33 35 36 38 39 40 41 40 40 40 42 43 44 45 45 45 44 43 42 41 42 42 40 37 34 32 31 31 31 30 29 27 25 23 21 18 16 15 14 13 11 10 8 7 7 6 6 7 8 9 11 13 14 16 18 19 20 21 21 22 22 23 23 23 23 23 23 23
17 17 17 17 17 18 20 23 24 26 28 29 30 30 30 30 31 32 32 34 35 37 38 39 39 40 41 42 43 43 44 43 42 42 41 40 40 41 40 37 34 31 30 30 30 30 30 28 27 25 22 20 18 17 16 15 13 12 10 8 7 6 6 6 7 9 10 12 14 16 17 18 20 21 21 22 22 21 21 21 21 22 22 22 22
20 20 20 20 19 19 19 21 22 24 25 26 27 28 29 31 31 32 33 34 35 36 37 38 38 39 40 41 41 41 41 40 39 39 38 38 39 40 39 34 30 30 31 31 32 31 29 28 26 25 23 20 19 18 17 15 13 11 10 8 7 6 6 6 8 10 12 14 15 17 18 19 21 21 22 22 21 20 20 20 20 20 20 20 20
23 23 23 23 23 22 22 22 22 23 24 25 26 27 29 30 31 31 33 34 34 35 36 36 37 37 37 37 38 39 39 38 37 36 34 35 37 38 36 32 30 31 31 31 31 30 29 28 26 24 22 21 20 19 17 14 13 11 10 8 7 6 6 7 9 11 13 14 16 17 19 20 21 21 21 21 20 20 19 19 18 19 19 18 18
23 24 24 25 25 25 25 25 25 25 25 26 26 27 29 30 31 31 32 33 34 34 34 34 34 34 33 34 34 35 35 35 35 34 32 33 35 34 32 31 32 32 32 32 31 30 29 27 25 23 22 21 20 18 16 14 13 11 9 7 6 6 6 8 10 12 13 15 16 18 19 19 20 20 20 19 19 18 18 17 17 17 17 17 16
23 23 24 24 25 26 26 27 26 26 27 27 27 28 29 29 30 31 31 32 32 32 32 32 32 32 31 31 30 31 32 32 32 32 31 31 32 33 32 32 33 32 32 31 31 30 28 26 24 23 22 21 19 17 16 14 12 10 8 6 5 6 7 9 11 12 14 16 17 18 18 19 19 19 19 17 17 16 16 16 16 15 15 16 16
23 23 23 23 24 24 25 26 26 26 26 27 28 28 29 29 29 30 30 31 30 30 30 30 30 30 30 29 28 28 29 29 30 30 29 29 31 32 33 34 35 35 33 32 30 28 26 24 23 23 21 20 18 17 15 13 10 8 6 5 5 6 8 10 11 13 15 16 17 18 18 18 18 18 17 16 15 14 14 14 14 14 14 14 15
23 23 23 23 23 23 24 25 25 25 26 26 27 28 28 29 29 29 29 29 29 29 29 29 29 29 29 28 27 27 27 27 28 28 28 29 31 34 35 37 36 35 33 32 30 27 25 23 23 22 20 19 17 15 13 10 8 6 4 4 6 7 9 11 13 14 15 16 17 18 17 17 16 15 14 13 12 12 12 12 12 12 12 13 14
22 22 22 22 22 23 23 24 25 25 26 26 27 27 27 28 28 28 28 29 28 28 28 28 28 28 28 28 28 27 26 26 26 26 26 28 31 33 34 34 33 32 31 30 29 27 25 24 22 21 19 18 15 12 10 7 5 3 3 5 8 10 11 13 14 15 16 17 17 16 15 15 14 13 12 11 11 10 11 11 11 12 12 12 13
22 21 21 21 22 22 23 24 24 25 26 27 27 27 27 27 28 28 28 28 28 27 27 27 28 28 28 29 29 28 27 27 25 25 27 30 32 32 32 30 29 29 28 28 27 26 24 23 21 19 17 14 11 8 6 3 2 3 6 8 10 12 14 15 15 16 16 16 15 14 13 12 12 11 11 10 10 10 10 11 11 12 12 12 13
23 23 22 22 22 22 23 23 24 25 26 27 27 28 28 28 28 28 28 28 27 27 27 27 28 28 28 29 29 29 28 28 28 30 33 34 34 32 31 30 28 27 26 26 25 24 22 20 18 16 13 10 7 5 2 2 4 6 9 11 13 14 15 15 16 16 15 14 13 12 11 11 10 10 10 10 10 10 11 11 11 12 13 13 13
25 25 25 25 24 24 24 24 24 25 26 27 27 28 28 28 28 27 27 27 27 27 27 28 28 28 28 28 28 28 28 29 31 33 35 35 33 31 30 29 27 26 25 24 23 22 20 17 14 12 9 6 4 2 3 5 7 9 11 12 14 15 15 15 15 15 14 13 11 10 10 10 9 9 9 10 10 10 10 11 11 12 13 14 14
27 27 27 27 27 27 26 25 25 25 25 26 27 27 27 27 26 26 26 26 26 26 27 27 28 27 27 27 27 27 28 29 31 32 32 32 31 30 30 28 26 24 23 22 21 19 17 14 11 8 6 3 2 3 5 8 9 11 12 13 14 15 15 14 14 13 12 11 10 9 9 9 9 8 8 9 10 10 10 11 12 12 13 14 15
28 28 28 28 29 29 28 27 25 25 25 25 25 25 25 24 23 24 25 25 26 26 27 27 27 27 27 27 27 27 27 27 28 29 29 28 28 28 28 27 25 23 21 20 18 15 13 10 7 4 3 3 4 6 8 9 11 12 13 14 14 14 14 13 12 11 10 9 9 9 9 8 8 8 8 9 9 10 10 11 11 12 13 14 14
28 28 29 29 29 29 29 28 26 24 24 23 23 22 22 21 22 23 24 25 26 26 26 27 27 28 28 27 27 26 25 24 24 25 25 26 27 27 26 25 23 21 19 17 14 12 9 6 4 3 3 5 7 8 10 11 11 12 13 13 13 12 12 11 10 10 9 9 8 8 8 8 9 9 9 9 9 9 10 11 11 12 13 14 14
27 28 29 29 29 29 29 28 26 24 23 22 21 20 20 21 21 22 23 24 25 26 26 27 28 28 28 28 27 26 24 22 22 22 23 24 25 24 23 22 20 18 15 13 10 8 6 4 3 4 5 7 8 10 11 11 11 12 12 12 12 11 10 10 10 9 9 8 8 8 9 9 9 9 9 9 10 9 10 10 11 11 12 13 14
27 28 28 29 29 28 28 26 25 23 21 20 20 20 20 21 22 22 23 24 24 25 26 26 27 27 28 28 26 25 24 22 21 21 22 22 22 21 20 18 16 14 12 9 7 5 5 4 5 6 7 9 10 10 11 11 11 11 11 11 11 10 10 10 10 9 9 9 9 9 9 9 10 10 10 10 10 10 10 10 11 11 12 13 13
26 27 27 27 27 26 25 23 22 21 20 19 19 19 20 21 22 22 23 23 24 25 25 26 26 26 26 26 25 24 24 23 22 21 21 21 20 18 17 15 12 10 8 7 6 5 5 6 7 7 9 10 10 11 11 11 11 11 10 10 10 10 10 10 10 10 10 10 10 10 10 10 10 10 10 10 10 10 10 10 11 12 12 13 14
26 25 25 24 23 22 21 20 19 19 19 19 19 19 19 20 21 22 23 24 24 24 25 25 25 25 24 24 24 24 24 23 22 22 21 19 17 15 13 11 9 8 7 7 7 7 7 8 8 9 10 10 11 11 11 11 10 10 10 10 11 10 10 10 11 11 11 11 11 11 11 10 10 11 10 10 10 10 10 11 11 12 13 13 14
23 22 21 20 20 19 19 19 19 19 19 19 19 19 19 20 21 21 22 23 23 23 24 24 23 23 23 24 25 25 25 24 22 20 18 15 13 12 10 9 8 8 8 8 8 8 8 9 9 9 10 10 11 11 11 11 10 10 10 10 11 11 11 11 11 12 12 12 12 12 12 11 11 11 11 11 11 11 11 11 12 12 13 13 14
20 18 17 17 17 17 17 18 18 18 18 19 19 19 19 19 19 20 20 21 21 21 21 21 22 22 24 25 26 26 24 22 19 17 15 13 11 10 10 9 10 10 10 9 9 9 8 9 9 10 10 11 11 11 11 11 11 11 11 11 11 11 12 12 12 12 12 13 13 13 12 12 12 12 12 12 12 11 12 12 12 12 13 13 13
16 15 14 14 14 14 15 16 16 16 16 16 17 17 17 17 17 18 19 20 21 21 21 21 23 24 24 24 23 22 20 18 16 14 13 12 11 11 11 11 11 10 9 9 9 9 9 9 10 10 11 11 11 11 11 11 11 11 12 12 12 12 13 13 13 13 13 13 13 13 13 12 12 12 12 12 12 12 12 12 12 13 13 13 13
13 12 12 12 11 11 12 12 12 13 13 13 13 14 14 15 15 16 18 19 21 23 24 24 24 24 22 20 19 17 16 15 14 13 13 12 12 12 12 11 10 9 9 9 9 9 9 10 10 11 11 11 11 11 12 12 12 12 12 13 13 13 13 13 13 13 13 13 13 13 13 12 12 12 12 13 13 13 12 12 13 13 13 13 13
Wind_Direction
233 235 237 240 243 246 248 250 251 252 253 254 255 255 255 255 256 257 257 259 260 262 263 265 265 265 264 265 264 262 260 257 254 253 252 253 253 248 247 251 254 255 253 250 248 247 249 252 255 254 255 263 265 263 265 269 271 272 270 270 270 267 273 280 281 286 291 292 294 295 294 294 291 288 287 290 295 296 297 299 300 298 296 295 293
236 238 240 243 245 247 249 249 250 251 252 253 254 254 254 254 256 257 259 260 261 262 263 264 263 262 263 264 263 260 259 258 254 253 253 252 251 248 245 244 246 251 255 251 243 240 246 250 252 253 255 261 265 265 267 271 274 273 266 265 266 266 270 276 279 285 288 287 290 293 293 295 294 289 286 290 294 295 296 298 299 298 297 296 293
238 240 242 244 246 247 248 249 250 251 252 253 253 254 254 254 255 257 259 260 260 260 261 260 259 260 262 262 261 259 258 256 252 250 251 253 253 253 250 245 242 244 250 249 241 239 247 249 250 253 255 257 260 260 262 268 275 276 267 263 266 268 269 271 274 280 286 286 287 289 292 294 295 292 289 292 296 297 298 299 299 298 296 294 293
239 241 244 246 248 249 250 252 253 253 254 254 254 254 253 253 254 255 256 257 257 257 257 257 258 260 260 259 258 257 254 252 250 249 251 255 256 257 255 250 245 246 247 246 240 239 243 245 248 255 256 255 256 256 260 267 273 273 269 267 269 272 271 271 273 277 283 287 290 291 292 293 294 293 293 297 300 302 303 304 303 301 297 295 293
243 246 248 250 251 251 252 253 254 254 254 254 254 253 251 251 251 251 252 253 253 254 254 256 257 258 258 257 255 253 251 249 250 250 253 255 255 256 256 251 248 250 248 242 239 242 244 247 252 256 257 257 259 260 263 269 271 268 266 269 272 275 276 275 275 277 282 288 292 293 294 294 294 295 297 301 304 307 308 308 307 304 300 296 292
251 253 253 254 253 253 253 252 253 253 254 253 253 251 249 248 247 247 248 249 250 251 253 255 256 255 254 252 249 247 246 248 249 250 254 256 255 257 255 247 242 245 248 246 246 250 252 254 255 256 256 258 261 265 270 274 274 266 259 261 265 270 272 272 272 275 279 283 287 290 293 294 295 296 298 302 306 309 310 310 311 309 304 298 291
260 260 259 258 257 255 254 254 254 254 254 253 251 249 247 245 245 244 245 246 248 251 252 253 253 251 248 245 244 243 244 247 250 251 253 254 254 256 256 252 247 245 245 247 249 250 252 253 255 257 259 260 263 267 269 271 272 267 260 259 261 264 267 270 273 276 278 282 286 289 292 292 294 296 299 304 308 311 313 313 314 312 307 299 293
270 269 267 264 261 258 256 255 256 256 255 253 251 248 245 243 242 242 242 245 248 250 250 250 247 245 242 240 240 242 243 245 249 252 253 253 253 253 252 251 253 251 249 248 249 251 253 254 256 259 261 263 264 264 264 266 270 271 267 264 264 265 267 270 272 275 280 285 288 289 288 290 294 297 302 308 311 312 313 313 313 312 307 301 296
280 278 275 271 267 263 259 257 256 256 255 254 252 249 245 241 239 240 242 244 247 247 246 244 241 239 238 238 238 241 243 245 248 251 254 255 256 256 252 249 251 255 256 255 255 257 259 260 261 262 263 264 264 263 264 265 266 266 264 264 264 265 265 267 270 275 280 284 285 286 288 292 296 298 303 308 309 309 310 310 310 310 306 301 298
283 282 280 276 271 266 261 258 257 256 256 254 252 248 243 239 237 238 240 243 243 243 241 238 237 237 237 237 239 241 244 247 250 253 255 257 258 258 257 256 257 258 260 259 259 261 264 266 267 267 266 264 262 261 261 260 260 261 262 263 264 265 266 267 271 274 276 278 282 286 291 294 295 296 300 303 304 305 307 307 307 307 303 300 300
277 278 279 277 273 267 262 259 257 256 255 253 250 244 239 235 233 235 238 239 239 238 236 235 236 236 237 238 240 242 246 249 251 253 255 256 257 258 259 260 260 261 261 261 262 264 266 268 266 263 261 259 256 255 255 257 258 260 261 262 264 266 267 268 269 270 272 275 280 286 290 292 292 293 296 298 300 302 303 303 302 302 301 300 301
275 274 275 275 272 267 263 260 257 254 251 248 244 238 232 230 231 233 234 235 235 234 234 235 236 237 238 239 241 244 247 249 251 253 255 256 257 257 258 260 261 262 263 264 265 266 265 262 257 254 256 256 255 254 254 256 258 259 261 262 262 264 266 269 270 269 270 274 279 284 286 287 288 291 294 296 299 300 298 297 296 296 296 297 299
276 274 274 273 270 266 263 259 255 250 245 240 236 231 230 229 229 231 231 231 233 233 235 237 238 239 240 240 242 245 248 250 251 253 255 256 257 257 258 259 262 263 264 264 264 263 258 252 249 248 251 253 253 251 249 250 254 258 262 262 262 264 267 269 269 267 269 274 278 281 283 285 290 293 295 297 298 296 294 293 292 292 293 295 296
277 273 272 272 268 263 260 256 251 245 237 232 229 227 226 227 227 228 230 231 233 235 238 241 242 242 243 243 245 247 249 251 253 255 257 257 257 257 257 259 261 262 261 259 257 254 249 245 246 246 246 246 247 247 247 248 252 257 259 261 263 266 267 267 267 267 271 276 279 282 284 288 292 294 295 296 296 294 292 291 292 292 293 295 294
278 273 272 270 265 259 254 249 243 237 229 225 223 222 223 225 227 230 233 235 238 240 242 245 246 245 245 245 247 249 250 252 253 256 257 257 256 255 256 257 258 257 255 252 249 246 244 243 245 244 243 243 245 247 249 252 254 256 257 258 260 261 263 264 266 270 274 277 280 283 286 289 291 293 293 294 293 291 292 292 294 295 294 294 294
279 275 273 271 266 257 248 242 236 230 224 222 222 223 225 228 231 235 238 240 243 245 247 249 249 248 247 247 248 250 251 253 255 256 256 255 254 254 254 255 254 251 249 246 244 242 242 242 243 242 242 242 243 245 248 250 250 251 252 253 254 257 260 264 269 273 276 279 282 285 288 290 292 291 291 292 292 293 294 295 297 297 297 297 297
279 275 274 274 270 259 245 237 232 227 224 224 225 227 229 232 236 239 242 246 249 250 252 253 253 252 250 249 251 252 252 254 256 256 255 253 252 252 253 252 250 248 245 243 241 241 240 240 240 240 240 239 240 241 243 243 244 246 249 252 254 258 263 269 273 277 280 283 286 288 290 291 292 293 293 294 295 296 297 298 299 298 298 298 298
277 273 273 273 272 265 249 236 231 230 228 228 229 230 233 236 238 241 246 250 253 254 255 256 256 255 253 252 252 252 253 255 256 256 255 253 251 251 251 250 247 245 242 240 239 238 237 238 237 236 236 236 236 235 235 235 237 242 248 252 256 261 266 271 276 281 285 288 291 293 294 294 296 296 297 298 298 299 300 299 299 299 298 298 298
272 270 270 269 271 269 255 240 234 233 232 232 233 234 236 237 238 241 246 250 253 255 255 256 257 257 255 254 253 252 253 254 255 256 254 252 250 249 248 247 246 243 240 239 237 235 233 233 232 231 230 229 228 228 229 233 236 239 244 248 253 258 264 271 278 284 290 294 296 297 297 298 299 299 299 300 300 301 301 300 300 300 298 299 299
267 266 265 264 267 269 260 246 239 236 236 235 236 237 238 238 239 242 246 250 252 254 256 257 257 257 256 254 253 253 254 254 255 255 254 251 250 248 247 246 244 241 239 238 236 234 231 228 226 225 224 223 222 223 224 227 228 230 233 238 247 258 268 277 285 291 297 300 300 300 300 300 301 302 302 303 303 303 303 302 301 301 300 301 301
264 263 261 260 263 268 266 255 246 243 242 241 241 242 241 241 242 244 247 251 253 255 257 258 258 257 256 255 254 254 254 254 254 254 252 250 249 248 246 243 241 239 237 235 233 231 228 224 221 220 219 219 218 217 217 218 219 223 230 242 258 271 278 285 291 296 301 303 302 302 302 304 306 306 306 307 307 307 308 307 306 305 304 304 304
263 262 260 260 261 264 267 262 253 249 247 247 248 248 247 246 246 247 249 251 254 256 258 259 259 258 257 255 255 254 253 253 253 252 251 250 248 247 245 241 238 236 234 232 230 227 225 221 219 218 217 216 215 214 216 219 224 232 245 260 271 278 283 288 294 299 303 303 303 304 305 308 310 311 312 312 313 314 315 313 312 311 310 309 309
257 257 257 259 261 260 261 261 256 252 251 251 252 253 254 253 252 251 251 252 254 256 258 259 260 260 259 257 255 253 251 250 250 250 250 248 247 246 242 237 234 232 231 229 227 225 223 220 218 216 216 215 215 216 218 222 228 239 254 266 275 281 285 290 295 299 302 304 306 308 310 313 315 316 317 318 318 319 318 316 315 313 312 312 311
254 252 251 252 254 254 255 255 254 253 252 252 253 255 256 256 256 256 255 254 254 256 258 259 260 260 260 259 258 255 252 250 249 250 249 247 246 243 239 234 231 229 228 226 224 223 222 220 218 217 216 215 216 217 219 223 230 242 256 268 275 280 283 288 294 299 304 309 312 313 315 318 318 320 321 320 319 318 317 315 314 313 312 313 312
258 255 252 249 247 248 249 250 250 252 252 252 253 254 255 256 256 257 257 257 256 257 258 259 261 261 262 262 261 258 254 251 250 249 247 245 243 240 236 232 228 227 225 224 224 224 222 219 217 216 215 215 216 218 221 225 233 244 255 264 270 274 278 283 290 298 306 312 315 317 319 319 320 320 320 319 318 316 316 315 313 312 312 312 311
265 263 260 255 252 250 250 249 250 250 251 252 252 252 253 254 255 256 257 257 257 258 258 260 261 262 263 264 264 260 255 252 251 250 248 245 241 237 234 230 227 225 224 223 224 223 221 217 215 214 214 215 217 219 223 228 234 243 251 256 260 265 271 280 290 301 309 315 317 319 320 320 319 319 318 318 317 316 316 315 313 311 310 309 309
275 269 265 261 259 258 257 257 257 257 257 257 256 256 255 255 255 255 255 255 256 257 258 261 263 264 266 267 266 262 257 253 251 250 248 245 240 236 232 229 225 223 222 222 221 219 217 214 213 213 214 215 216 218 221 226 231 237 243 246 249 257 269 282 295 304 310 315 318 319 319 319 318 316 316 317 316 315 315 313 312 311 309 308 308
292 281 272 266 263 262 262 263 264 266 266 267 267 266 265 263 261 260 259 259 260 260 262 265 267 269 270 268 266 263 258 254 252 250 248 245 241 236 232 228 225 223 222 221 218 215 213 213 212 213 213 214 216 218 219 224 229 232 234 238 245 257 272 284 295 303 312 316 318 318 318 318 316 314 314 314 313 313 312 312 311 310 309 310 311
298 295 288 278 272 268 265 264 265 267 268 270 270 271 271 271 270 269 268 266 265 265 266 268 269 269 268 266 264 262 259 257 254 251 248 245 243 239 234 229 226 224 222 219 216 213 211 211 211 212 213 213 215 217 219 220 222 224 225 231 243 257 269 282 295 305 312 316 317 317 317 316 314 312 311 312 312 311 311 311 310 310 312 313 315
288 291 292 288 283 277 270 267 266 265 265 267 267 269 270 270 270 270 270 268 267 266 266 266 266 266 265 264 263 261 259 258 255 252 249 246 243 241 237 233 229 224 218 213 212 212 212 211 211 212 212 213 214 215 216 216 216 218 222 228 239 252 266 283 300 308 312 315 316 315 315 313 311 310 310 311 311 311 312 312 312 314 316 318 319
285 285 287 286 284 280 275 270 267 265 265 265 265 266 267 268 268 269 269 269 268 267 266 266 265 264 263 262 261 259 258 256 254 252 251 247 244 242 239 233 226 219 214 211 210 210 210 211 211 211 210 210 210 210 210 210 210 214 219 224 234 251 270 290 303 308 311 313 314 314 313 312 310 309 310 311 312 314 315 316 317 318 319 320 321
290 289 289 287 285 283 278 273 268 265 265 265 266 266 267 268 268 268 268 269 269 268 267 265 264 264 263 261 259 257 256 255 254 253 251 247 244 243 239 231 220 212 210 211 211 211 210 209 210 211 209 206 205 204 204 205 206 210 214 219 231 251 274 292 302 306 309 311 313 313 312 311 310 310 311 313 315 318 319 320 320 319 319 321 322
293 293 292 292 291 289 287 284 278 272 268 266 266 266 267 268 269 269 268 269 269 268 267 266 265 265 263 260 258 255 255 255 255 255 253 247 242 238 233 225 215 209 209 209 209 210 210 209 207 208 205 203 201 200 199 200 202 205 211 220 237 261 282 294 301 306 309 311 312 311 309 309 309 309 311 313 316 318 320 320 319 319 319 321 323
295 295 295 294 293 292 292 291 289 285 280 275 272 271 270 270 271 271 270 270 269 269 268 267 265 263 260 258 256 254 253 253 253 253 252 246 239 232 224 216 211 209 209 210 209 209 208 206 204 202 200 198 197 196 196 198 200 204 214 228 250 275 291 299 306 310 312 312 310 308 307 307 307 307 309 312 315 317 318 318 318 319 320 321 323
296 297 298 297 295 293 292 291 290 289 286 283 280 278 277 275 275 273 272 272 271 269 268 265 262 259 256 254 252 252 252 251 250 250 249 243 235 226 216 209 208 208 207 207 208 209 207 204 200 198 196 195 195 196 197 199 203 208 221 242 268 289 301 308 312 313 312 309 307 306 304 303 303 303 306 311 313 314 314 315 316 319 322 323 323
293 295 297 299 299 298 296 294 292 289 286 284 281 278 276 275 275 274 273 272 271 270 268 265 261 257 253 250 248 249 249 248 248 248 246 239 230 221 213 209 209 209 207 205 204 204 202 199 196 195 194 193 195 197 198 201 207 217 242 276 296 306 312 314 313 310 308 306 303 301 299 298 299 300 304 308 309 309 310 314 317 320 324 324 323
290 292 295 297 299 299 299 297 295 291 288 285 282 278 276 275 274 273 272 271 270 268 266 263 259 254 249 245 242 240 240 243 247 246 240 231 224 218 215 214 213 211 209 207 204 200 196 193 192 193 194 194 196 197 198 201 214 246 296 313 317 316 314 312 310 308 305 301 298 296 295 295 297 299 302 304 307 308 312 316 319 321 324 323 322
290 290 291 293 295 296 297 296 295 292 289 286 283 280 277 275 274 273 272 270 269 266 263 260 257 253 248 244 241 237 236 238 237 231 222 218 215 213 213 215 215 213 211 208 203 197 192 191 191 192 194 194 194 193 193 203 273 317 320 318 317 315 312 310 307 303 299 296 293 292 292 293 294 296 300 304 308 311 313 315 316 317 318 317 316
295 293 292 292 292 292 293 293 292 290 288 285 283 280 277 275 273 272 271 269 267 264 260 258 255 252 249 246 244 240 238 235 230 222 214 210 209 210 211 212 212 211 209 205 199 192 190 191 192 191 190 189 187 185 199 300 317 318 317 315 313 311 309 305 301 297 293 291 289 288 288 288 291 295 299 303 305 307 309 310 310 310 310 310 311
297 297 296 294 293 292 290 289 289 287 285 283 280 278 276 274 272 271 270 267 264 261 258 255 253 251 250 248 247 244 241 236 230 222 216 211 208 208 208 208 206 204 201 198 193 188 188 188 187 184 182 181 185 220 298 309 309 310 312 311 309 307 303 299 295 292 289 286 284 283 283 286 290 294 298 300 302 303 304 304 304 303 304 305 307
293 294 294 294 293 291 289 287 286 285 283 280 277 275 273 272 271 269 266 264 261 258 254 252 250 248 247 245 245 243 240 234 227 220 215 212 209 206 203 200 196 193 191 189 186 184 183 180 178 178 180 194 252 291 302 305 307 309 309 308 305 301 297 293 289 285 281 279 278 279 282 285 290 294 296 298 300 301 302 302 302 303 303 304 305
288 288 289 290 289 288 287 285 283 281 278 276 273 271 270 269 267 264 262 259 256 252 249 246 243 241 238 238 238 236 232 226 221 216 212 209 205 201 196 190 185 183 182 181 178 176 174 172 173 181 205 259 286 298 302 303 305 306 305 302 299 294 290 285 280 276 274 275 275 278 281 285 291 295 297 298 299 300 301 302 302 302 303 304 305
284 283 284 284 284 283 282 281 279 277 275 273 271 268 266 264 261 258 256 253 251 248 245 241 237 234 231 229 229 226 221 216 213 212 208 202 198 193 187 181 177 175 174 171 168 167 168 172 186 220 261 281 290 297 300 300 301 301 298 294 290 285 281 277 274 271 272 272 273 278 283 287 292 296 298 299 301 302 302 302 302 303 304 305 306
280 279 279 279 279 278 277 275 274 274 272 268 265 262 259 257 254 251 249 246 244 242 240 237 233 230 227 223 220 216 212 206 203 201 198 192 186 181 176 171 169 168 166 164 163 167 177 196 228 259 279 287 291 294 296 297 296 293 289 284 280 276 273 271 269 269 269 271 275 281 285 289 293 295 297 299 302 303 303 303 303 305 306 306 307
278 277 276 275 274 272 271 270 269 268 266 263 260 256 253 250 248 245 243 240 237 235 233 231 229 227 225 220 215 209 203 195 189 185 182 177 172 168 166 164 164 164 163 166 173 187 208 237 259 273 282 286 289 292 292 292 289 284 279 275 271 268 266 266 266 268 270 274 278 282 286 290 293 295 298 302 302 303 305 306 306 310 312 311 310
278 276 275 273 272 270 269 268 266 264 261 259 256 253 250 247 244 241 238 234 231 228 226 224 222 220 218 215 209 201 192 182 175 172 170 167 164 163 162 162 164 167 173 184 202 223 243 258 268 275 280 283 286 287 285 282 278 273 268 265 263 262 263 264 267 271 275 279 283 285 288 292 296 297 299 301 302 304 308 311 312 314 316 314 313
277 275 274 273 272 270 268 267 265 262 258 255 252 250 247 245 241 237 233 229 226 224 220 217 213 210 208 205 199 190 179 170 167 166 165 164 163 163 165 168 175 186 199 215 233 247 255 261 267 273 276 278 279 278 276 272 268 262 258 257 258 260 263 267 272 277 281 284 287 290 291 294 297 297 298 301 304 308 312 314 315 317 317 316 315
274 274 274 273 272 269 267 265 263 260 257 252 248 245 241 239 236 232 228 225 221 218 213 209 204 200 194 188 182 174 167 164 164 164 163 164 167 172 180 190 203 219 231 240 246 251 256 261 266 270 272 273 272 270 266 263 259 255 254 256 258 262 267 272 276 280 284 287 290 292 294 296 297 299 301 304 307 310 314 315 316 317 317 315 314
275 272 270 268 267 266 264 263 262 261 258 253 248 242 235 230 227 224 220 215 211 208 204 197 189 182 175 169 165 162 161 162 163 164 167 174 183 193 206 220 231 237 240 242 246 250 255 260 263 265 266 266 264 262 259 256 255 254 255 258 262 267 272 275 278 281 285 287 289 291 294 296 298 300 303 306 308 310 313 314 314 314 314 313 312
270 265 262 261 262 263 264 263 261 259 256 252 247 240 231 222 216 211 205 200 194 188 182 176 170 164 161 159 159 159 161 164 169 175 184 194 204 216 225 231 234 236 239 243 249 252 255 258 259 261 260 259 257 255 253 252 253 255 259 263 267 271 273 276 279 281 283 284 286 289 292 295 298 300 302 305 307 310 311 312 312 311 311 310 310
253 251 252 254 255 258 260 259 257 253 248 244 240 234 222 209 197 188 181 175 170 165 162 160 159 158 158 160 162 165 171 177 185 194 203 212 219 225 228 231 234 238 243 248 250 252 254 255 255 253 252 250 249 248 249 250 254 258 262 266 270 272 274 277 279 281 282 283 285 288 291 294 296 299 301 303 305 307 308 308 308 306 307 307 308